Content
SEND FEEDBACK

Daily
Averages
Monthly
Summary
United States of America

ULYSSES, NEBRASKA


Home > North America > United States > Nebraska
Elevation: 1520 feet     Latitude: 41 04N     Longitude: 097 12W

WEATHER
 
SELECT A DAY
Number of Records: 310,584;   Date Range: 1/14/02 - 7/22/14
 
SHARE

PRINT THIS DATA

[ ← Previous Day ]
WEATHER ALMANAC - JANUARY 3, 2013
[ Next Day → ]
[ °C ]   °F
Weather ElementAverageHighLow
Temperature22.3 °F28.4 °F (12:35 am)12.2 °F (10:35 pm)
Dewpoint18.2 °F24.8 °F (12:35 am)8.6 °F (10:35 pm)
Humidity84.5 %100 % (6:55 pm)74 % (1:15 pm)
Barometer30.33 in30.40 in (10:35 am)30.24 in (12:35 am)
Wind Speed5 mph18.4 mph (9:35 am)
Weather ElementAverage
Visibility9.8 mi
Wind DirectionSE (135.1 °)

Weather ElementTotal
Precipitation---
Heating Degree Days44.7 (Base 65)
Averaged from 68 records on January 3, 2013
WEATHER CONDITIONS BREAKOUT
WIND DIRECTION BREAKOUT
WEATHER BY HOUR - JANUARY 3, 2013
[ °C ]   °F
Local TimeTemperatureDewpointHumidityBarometerVisibilityWind DirectionWind SpeedGust SpeedPrecipitationEventsConditions
12:35 AM28.4 °F24.8 °F86 %30.24 in10.0 miNNW (330°)15.0 mphOvercast
1:15 AM26.6 °F23.0 °F86 %30.24 in10.0 miNNW (330°)10.4 mphOvercast
1:55 AM24.8 °F21.2 °F86 %30.25 in10.0 miNW (320°)9.2 mphSnowLight Snow
2:15 AM26.6 °F23.0 °F86 %30.26 in10.0 miNW (320°)10.4 mphOvercast
2:35 AM26.6 °F23.0 °F86 %30.27 in10.0 miNW (310°)9.2 mphSnowLight Snow
2:55 AM26.6 °F23.0 °F86 %30.28 in10.0 miNW (310°)9.2 mphSnowLight Snow
3:15 AM26.6 °F23.0 °F86 %30.29 in10.0 miCalmOvercast
3:35 AM26.6 °F23.0 °F86 %30.29 in10.0 miWNW (300°)9.2 mphOvercast
3:55 AM26.6 °F23.0 °F86 %30.29 in10.0 miNNW (340°)8.1 mphOvercast
4:15 AM26.6 °F23.0 °F86 %30.29 in10.0 miCalmOvercast
4:35 AM26.6 °F23.0 °F86 %30.29 in10.0 miNNW (330°)9.2 mphOvercast
4:55 AM26.6 °F23.0 °F86 %30.30 in10.0 miNNW (330°)10.4 mphSnowLight Snow
5:15 AM26.6 °F21.2 °F80 %30.29 in10.0 miNW (320°)10.4 mphSnowLight Snow
5:35 AM26.6 °F23.0 °F86 %30.30 in10.0 miCalmSnowLight Snow
5:55 AM26.6 °F23.0 °F86 %30.30 in10.0 miCalmSnowLight Snow
6:15 AM26.6 °F23.0 °F86 %30.31 in10.0 miNW (310°)8.1 mphSnowLight Snow
6:35 AM26.6 °F23.0 °F86 %30.32 in10.0 miNW (320°)9.2 mphSnowLight Snow
6:55 AM26.6 °F23.0 °F86 %30.32 in10.0 miCalmSnowLight Snow
7:15 AM26.6 °F23.0 °F86 %30.33 in10.0 miCalmSnowLight Snow
7:35 AM26.6 °F23.0 °F86 %30.33 in10.0 miCalmSnowLight Snow
7:55 AM26.6 °F23.0 °F86 %30.33 in9.0 miCalmSnowLight Snow
8:15 AM26.6 °F24.8 °F93 %30.34 in6.0 miCalmSnowLight Snow
8:35 AM26.6 °F24.8 °F93 %30.35 in5.0 miNNW (330°)10.4 mphSnowLight Snow
8:55 AM26.6 °F24.8 °F93 %30.35 in5.0 miNorth (350°)8.1 mphSnowLight Snow
9:35 AM26.6 °F23.0 °F86 %30.37 in10.0 miNorth (10°)18.4 mphOvercast
9:55 AM24.8 °F23.0 °F93 %30.38 in10.0 miNNE (20°)13.8 mphOvercast
10:15 AM24.8 °F19.4 °F80 %30.39 in10.0 miNNE (20°)10.4 mphOvercast
10:35 AM23.0 °F19.4 °F86 %30.40 in10.0 miNNE (30°)9.2 mphOvercast
10:55 AM23.0 °F17.6 °F80 %30.40 in10.0 miNE (40°)8.1 mphSnowLight Snow
11:15 AM23.0 °F17.6 °F80 %30.40 in10.0 miNorth (350°)3.5 mphOvercast
11:35 AM23.0 °F17.6 °F80 %30.40 in10.0 miCalmOvercast
11:55 AM23.0 °F17.6 °F80 %30.39 in10.0 miNorth (360°)5.8 mphOvercast
12:15 PM23.0 °F17.6 °F80 %30.38 in10.0 miNorth (360°)6.9 mphSnowLight Snow
12:35 PM23.0 °F17.6 °F80 %30.37 in10.0 miCalmOvercast
12:55 PM23.0 °F17.6 °F80 %30.37 in10.0 miCalmOvercast
1:15 PM24.8 °F17.6 °F74 %30.36 in10.0 miCalmSnowLight Snow
1:35 PM24.8 °F17.6 °F74 %30.35 in10.0 miCalmSnowLight Snow
1:55 PM24.8 °F17.6 °F74 %30.34 in10.0 miCalmSnowLight Snow
2:15 PM24.8 °F17.6 °F74 %30.34 in10.0 miCalmOvercast
2:35 PM24.8 °F17.6 °F74 %30.34 in10.0 miCalmOvercast
2:55 PM24.8 °F19.4 °F80 %30.34 in10.0 miCalmScattered Clouds
3:15 PM24.8 °F19.4 °F80 %30.34 in10.0 miCalmSnowLight Snow
3:35 PM24.8 °F17.6 °F74 %30.34 in10.0 miCalmSnowLight Snow
3:55 PM24.8 °F17.6 °F74 %30.34 in10.0 miCalmSnowLight Snow
4:15 PM23.0 °F17.6 °F80 %30.34 in10.0 miCalmSnowLight Snow
4:35 PM23.0 °F17.6 °F80 %30.33 in10.0 miCalmClear
4:55 PM23.0 °F17.6 °F80 %30.33 in10.0 miCalmSnowLight Snow
5:15 PM19.4 °F15.8 °F86 %30.33 in10.0 miCalmClear
5:35 PM21.2 °F17.6 °F86 %30.33 in10.0 miCalmClear
5:55 PM19.4 °F15.8 °F86 %30.34 in10.0 miCalmSnowLight Snow
6:15 PM17.6 °F15.8 °F93 %30.34 in10.0 miCalmClear
6:35 PM17.6 °F14.0 °F86 %30.34 in10.0 miCalmClear
6:55 PM15.8 °F15.8 °F100 %30.34 in10.0 miCalmClear
7:15 PM15.8 °F15.8 °F100 %30.34 in8.0 miCalmClear
7:35 PM15.8 °F14.0 °F93 %30.33 in10.0 miSW (220°)8.1 mphClear
7:55 PM14.0 °F12.2 °F93 %30.33 in10.0 miSW (220°)8.1 mphClear
8:15 PM14.0 °F10.4 °F86 %30.32 in10.0 miSW (220°)9.2 mphClear
8:35 PM14.0 °F10.4 °F86 %30.32 in10.0 miSSW (210°)8.1 mphClear
8:55 PM14.0 °F10.4 °F86 %30.31 in10.0 miSSW (210°)8.1 mphClear
9:15 PM14.0 °F10.4 °F86 %30.31 in10.0 miSW (220°)10.4 mphClear
9:35 PM14.0 °F10.4 °F86 %30.31 in10.0 miWSW (240°)8.1 mphClear
9:55 PM15.8 °F10.4 °F79 %30.30 in10.0 miWSW (240°)9.2 mphClear
10:15 PM14.0 °F10.4 °F86 %30.31 in10.0 miWSW (240°)6.9 mphClear
10:35 PM12.2 °F8.6 °F85 %30.31 in10.0 miSW (230°)6.9 mphClear
10:55 PM12.2 °F8.6 °F85 %30.30 in10.0 miSW (220°)8.1 mphClear
11:15 PM14.0 °F10.4 °F86 %30.30 in10.0 miSW (220°)8.1 mphClear
11:35 PM14.0 °F10.4 °F86 %30.29 in10.0 miSW (230°)8.1 mphClear
11:55 PM14.0 °F10.4 °F86 %30.29 in10.0 miSW (230°)9.2 mphClear
Hourly data recorded from KJYR, located miles away from Ulysses, Nebraska







STORIES FROM OUR PARTNERS